[[{"header":{"parameterUnit":"m.s-1","parameterCategory":1,"la1":30.2991,"la2":30.254,"lo1":-89.0895,"lo2":-89.0444,"dy":0.0017,"dx":0.0017,"nx":28,"ny":28,"refTime":"2023-08-29T03:00:00:Z","depth":0,"parameterNumber":2,"parameterNumberName":"U-component_of_WINDS"},"data":[0,0,0,0,0,0,0,0,0,0,0,0,0,0,0,0,0,0,0,0,0,0,0,0,0,0,0,0,0,0,0,0,0,0,0,0,0,0,0,0,0,0,0,0,0,0,0,0,0,0,0,0,0,0,0,0,0,0,-2.701,-2.7011,0,-2.7037,-2.7037,-2.7038,-2.6942,-2.694,-2.6937,-2.6934,-2.6961,-2.6965,-2.6968,0,0,0,0,0,0,0,0,0,0,0,0,0,-2.6876,-2.6879,-2.701,-2.7011,-2.7011,-2.7037,-2.7037,-2.7038,-2.6943,-2.6939,-2.6936,-2.6933,-2.696,-2.6964,-2.6968,0,0,0,0,0,0,0,0,0,0,0,0,0,-2.6922,-2.688,-2.701,-2.6967,-2.6963,-2.7037,-2.7037,-2.7038,-2.6944,-2.6939,-2.6935,-2.6931,-2.6959,-2.6964,-2.6969,-2.7086,0,0,-2.6985,-2.6987,0,0,0,0,0,0,0,0,-2.6919,-2.6927,-2.6973,-2.697,-2.6966,-2.6982,-2.7,-2.7054,-2.6945,-2.6951,-2.6934,-2.6929,-2.6972,-2.6976,-2.699,-2.7087,-2.7088,-2.6985,-2.6988,-2.699,-2.6992,0,0,0,0,0,0,0,-2.6916,-2.6925,-2.7021,-2.6974,-2.6969,-2.6946,-2.6947,-2.701,-2.6985,-2.695,-2.6943,-2.6948,-2.6969,-2.6985,-2.699,-2.7089,-2.6985,-2.6989,-2.6993,-2.6994,-2.7283,-2.7287,0,0,0,0,0,0,-2.6919,-2.6923,-2.702,-2.7022,-2.6932,-2.6952,-2.6953,-2.6981,-2.6984,-2.698,-2.6951,-2.6943,-2.6979,-2.6984,-2.6991,-2.7128,-2.699,-2.6995,-2.6998,-2.7278,-2.7284,-2.7289,0,0,0,0,0,0,-2.6916,-2.6928,-2.7019,-2.6971,-2.698,-2.6958,-2.699,-2.6984,-2.7,-2.6985,-2.698,-2.6973,-2.6976,-2.6983,-2.7063,-2.7127,-2.6997,-2.7002,-2.7273,-2.728,-2.7286,-2.7403,0,0,0,0,0,0,-2.6913,-2.6928,-2.6973,-2.6972,-2.6983,-2.7092,-2.6994,-2.6988,-2.7009,-2.6999,-2.7004,-2.7,-2.6973,-2.7056,-2.7068,-2.7132,-2.7006,-2.7267,-2.7276,-2.7284,-2.7394,-2.7413,-2.743,0,0,0,0,0,-2.6909,-2.7005,-2.6976,-2.6988,-2.7039,-2.7095,-2.7102,-2.7068,-2.7015,-2.7059,-2.7049,-2.7,-2.7118,-2.7065,-2.7078,-2.7144,-2.7263,-2.7273,-2.7283,-2.7385,-2.741,-2.743,0,0,0,0,0,0,-2.7014,-2.7004,-2.6971,-2.707,-2.7085,-2.7079,-2.7134,-2.7095,-2.7124,-2.7113,-2.707,-2.7072,-2.7159,-2.7159,-2.71,-2.7257,-2.7181,-2.7195,-2.7254,-2.7277,-2.7295,-2.7294,-2.701,0,0,0,0,0,-2.7048,-2.7096,-2.7084,-2.7173,-2.7181,-2.7157,-2.718,-2.7153,-2.7166,-2.7171,-2.7167,-2.7182,-2.7221,-2.7249,-2.7285,-2.7393,-2.7392,-2.7445,-2.7463,-2.7478,-2.7491,-2.7547,-2.7571,-2.7323,-2.7323,-2.7323,0,0,-2.7121,-2.7121,-2.7154,-2.7194,-2.7201,-2.7251,-2.7163,-2.7219,-2.7255,-2.718,-2.7255,-2.7252,-2.7265,-2.7359,-2.7401,-2.7362,-2.7559,-2.7491,-2.7503,-2.7508,-2.756,-2.7584,-2.7605,-2.733,-2.7329,-2.7328,0,0,-2.7278,-2.7283,-2.7357,-2.7366,-2.7379,-2.7362,-2.738,-2.738,-2.7376,-2.745,-2.7395,-2.7437,-2.7507,-2.7518,-2.7533,-2.7694,-2.765,-2.7706,-2.7803,-2.7859,-2.7878,-2.7895,-2.7953,-2.7974,-2.7719,-2.7719,-2.7719,0,-2.7366,-2.7439,-2.74,-2.7461,-2.748,-2.7413,-2.7488,-2.7498,-2.7523,-2.7537,-2.7493,-2.758,-2.7584,-2.7679,-2.7719,-2.7733,-2.7752,-2.7706,-2.7878,-2.7895,-2.7911,-2.7965,-2.7987,-2.7726,-2.7725,-2.7724,-2.7724,0,-2.7547,-2.7599,-2.7657,-2.7682,-2.7707,-2.7774,-2.7745,-2.7776,-2.7746,-2.7733,-2.781,-2.7812,-2.7847,-2.7867,-2.7839,-2.7959,-2.7935,-2.7886,-2.7809,-2.7942,-2.7992,-2.8013,-2.7736,-2.7733,-2.7731,-2.7729,0,0,-2.7773,-2.7775,-2.7797,-2.7807,-2.7815,-2.7854,-2.7918,-2.7952,-2.7979,-2.7997,-2.805,-2.811,-2.8064,-2.8081,-2.8053,-2.8102,-2.8229,-2.8046,-2.8046,-2.8081,-2.8362,-2.84,-2.8425,-2.82,-2.8203,-2.8206,-2.8362,0,-2.7928,-2.8038,-2.8004,-2.8115,-2.8161,-2.8098,-2.8153,-2.8164,-2.8154,-2.8192,-2.818,-2.8224,-2.8159,-2.8169,-2.8215,-2.8205,-2.8286,-2.8193,-2.8248,-2.8251,-2.8249,-2.8452,-2.8492,-2.8639,-2.8381,-2.8384,-2.8387,0,-2.8124,-2.815,-2.8266,-2.8266,-2.8284,-2.8335,-2.8363,-2.84,-2.8411,-2.8399,-2.8418,-2.838,-2.8442,-2.8363,-2.8448,-2.8386,-2.8406,-2.8405,-2.8409,-2.8414,-2.8328,-2.8463,-2.8684,-2.8707,-2.8417,-2.8415,-2.8413,0,-2.8279,-2.8342,-2.8419,-2.843,-2.8431,-2.8469,-2.8471,-2.8477,-2.85,-2.8524,-2.8539,-2.857,-2.8588,-2.8613,-2.8583,-2.8529,-2.8673,-2.8592,-2.8666,-2.8667,-2.87,-2.8699,-2.8929,-2.8712,-2.8711,-2.8711,-2.8711,0,-2.8456,-2.8529,-2.8488,-2.8536,-2.8616,-2.8576,-2.8656,-2.8651,-2.8657,-2.8702,-2.8649,-2.8692,-2.865,-2.869,-2.8667,-2.8741,-2.8749,-2.8742,-2.8735,-2.8748,-2.8749,-2.8761,-2.8751,-2.8717,-2.8716,-2.8714,-2.8713,0,-2.8643,-2.8618,-2.8698,-2.8693,-2.8693,-2.8752,-2.8748,-2.8791,-2.8776,-2.8834,-2.8845,-2.8822,-2.8866,-2.8839,-2.8883,-2.8867,-2.8964,-2.8943,-2.8961,-2.8956,-2.9031,-2.9025,-2.9279,-2.931,-2.9072,-2.9074,-2.9076,0,-2.8758,-2.8813,-2.8814,-2.884,-2.8846,-2.8889,-2.8912,-2.8874,-2.89,-2.8915,-2.8957,-2.8996,-2.9026,-2.9098,-2.9085,-2.9119,-2.9098,-2.9185,-2.9103,-2.9114,-2.9101,-2.9098,-2.9104,-2.9202,-2.9205,-2.9207,-2.9209,0,-2.8966,-2.8951,-2.8986,-2.9017,-2.9045,-2.9067,-2.9085,-2.911,-2.9072,-2.9103,-2.9147,-2.917,-2.9215,-2.9254,-2.9282,-2.9284,-2.9241,-2.9234,-2.9253,-2.9267,-2.9276,-2.9273,-2.9007,-2.9229,-2.9227,-2.9226,-2.9225,-2.9224,-2.9121,-2.9167,-2.9175,-2.9215,-2.9224,-2.9242,-2.9282,-2.9272,-2.9308,-2.9342,-2.9317,-2.9369,-2.9377,-2.941,-2.9418,-2.9458,-2.9423,-2.945,-2.9457,-2.9465,-2.9475,-2.9268,-2.9462,-2.9462,-2.9461,-2.9461,-2.946,0,-2.9327,-2.9329,-2.9366,-2.9392,-2.9424,-2.938,-2.9397,-2.9426,-2.9473,-2.9484,-2.9514,-2.9564,-2.9602,-2.9592,-2.9625,-2.9659,-2.964,-2.967,-2.9667,-2.9668,-2.9505,-2.9485,-2.9684,-2.9684,-2.9684,-2.9684,-2.9684,-2.9684,-2.9438,-2.9513,-2.9499,-2.9578,-2.9578,-2.9629,-2.9643,-2.9658,-2.9667,-2.9726,-2.9757,-2.9749,-2.9752,-2.9785,-2.9818,-2.9813,-2.9829,-2.9866,-2.9854,-2.9702,-2.968,-2.9659,-2.964,-2.9869,-2.9869,-3.0015,-3.0016,-3.0017]},{"header":{"parameterUnit":"m.s-1","parameterCategory":1,"la1":30.2991,"la2":30.254,"lo1":-89.0895,"lo2":-89.0444,"dy":0.0017,"dx":0.0017,"nx":28,"ny":28,"refTime":"2023-08-29T03:00:00:Z","depth":0,"parameterNumber":3,"parameterNumberName":"V-component_of_WINDS"},"data":[0,0,0,0,0,0,0,0,0,0,0,0,0,0,0,0,0,0,0,0,0,0,0,0,0,0,0,0,0,0,0,0,0,0,0,0,0,0,0,0,0,0,0,0,0,0,0,0,0,0,0,0,0,0,0,0,0,0,-3.9375,-3.9375,0,-3.9418,-3.9418,-3.9419,-3.9371,-3.9369,-3.9367,-3.9366,-3.9406,-3.9408,-3.9411,0,0,0,0,0,0,0,0,0,0,0,0,0,-3.9248,-3.925,-3.9375,-3.9375,-3.9376,-3.9418,-3.9418,-3.9419,-3.9371,-3.9369,-3.9367,-3.9365,-3.9405,-3.9408,-3.9411,0,0,0,0,0,0,0,0,0,0,0,0,0,-3.9298,-3.9251,-3.9375,-3.9357,-3.9356,-3.9418,-3.9418,-3.9419,-3.9372,-3.9369,-3.9366,-3.9364,-3.9404,-3.9408,-3.9412,-3.9491,0,0,-3.9424,-3.9426,0,0,0,0,0,0,0,0,-3.9295,-3.9302,-3.9359,-3.9359,-3.9358,-3.9386,-3.9388,-3.9443,-3.9372,-3.9366,-3.9366,-3.9363,-3.9401,-3.9405,-3.9419,-3.9493,-3.9495,-3.9425,-3.9427,-3.9429,-3.943,0,0,0,0,0,0,0,-3.9292,-3.93,-3.9392,-3.936,-3.9359,-3.9346,-3.935,-3.9398,-3.9398,-3.9366,-3.9363,-3.9369,-3.94,-3.9415,-3.942,-3.9495,-3.9425,-3.9428,-3.9431,-3.9432,-3.9635,-3.9637,0,0,0,0,0,0,-3.9291,-3.9298,-3.939,-3.9393,-3.9319,-3.935,-3.9355,-3.938,-3.9397,-3.9398,-3.9371,-3.9366,-3.941,-3.9415,-3.9421,-3.9514,-3.9429,-3.9433,-3.9435,-3.9632,-3.9635,-3.9638,0,0,0,0,0,0,-3.9288,-3.9299,-3.9389,-3.9345,-3.9355,-3.9356,-3.9384,-3.9382,-3.9397,-3.9401,-3.94,-3.9387,-3.9408,-3.9415,-3.9474,-3.9515,-3.9435,-3.9438,-3.9628,-3.9633,-3.9637,-3.9701,0,0,0,0,0,0,-3.9285,-3.9299,-3.933,-3.9346,-3.9357,-3.9442,-3.9386,-3.9385,-3.9405,-3.9399,-3.9416,-3.9416,-3.9406,-3.9468,-3.9478,-3.9519,-3.9442,-3.9625,-3.963,-3.9635,-3.9695,-3.9707,-3.9717,0,0,0,0,0,-3.928,-3.9346,-3.9332,-3.9343,-3.9397,-3.9445,-3.9451,-3.944,-3.9408,-3.9439,-3.9441,-3.9415,-3.9509,-3.9475,-3.9485,-3.9528,-3.9622,-3.9629,-3.9635,-3.969,-3.9705,-3.9717,0,0,0,0,0,0,-3.9334,-3.9348,-3.9332,-3.9405,-3.9424,-3.9437,-3.9475,-3.9456,-3.9483,-3.9477,-3.946,-3.9465,-3.9527,-3.9533,-3.9495,-3.9605,-3.956,-3.9569,-3.9598,-3.9612,-3.9623,-3.9619,-3.9445,0,0,0,0,0,-3.9354,-3.9394,-3.9403,-3.9466,-3.9477,-3.9475,-3.9495,-3.9485,-3.9503,-3.9511,-3.9517,-3.9535,-3.9568,-3.9591,-3.9622,-3.9696,-3.9698,-3.9731,-3.9742,-3.9751,-3.9758,-3.9797,-3.9811,-3.966,-3.966,-3.966,0,0,-3.9397,-3.9409,-3.9435,-3.9477,-3.9491,-3.9531,-3.9482,-3.9526,-3.9554,-3.9517,-3.9573,-3.9579,-3.9597,-3.9664,-3.9694,-3.9671,-3.9801,-3.9759,-3.9766,-3.9769,-3.9805,-3.9819,-3.9832,-3.9664,-3.9663,-3.9663,0,0,-3.9494,-3.9508,-3.9562,-3.9577,-3.9598,-3.9596,-3.9609,-3.9624,-3.9627,-3.9683,-3.9656,-3.9689,-3.9747,-3.9761,-3.9776,-3.9878,-3.9854,-3.9888,-3.9945,-3.9983,-3.9995,-4.0005,-4.004,-4.0053,-3.9896,-3.9896,-3.9896,0,-3.9543,-3.9603,-3.9591,-3.9638,-3.9656,-3.9626,-3.9679,-3.9693,-3.9724,-3.9737,-3.9711,-3.9783,-3.9794,-3.9863,-3.9887,-3.9901,-3.9914,-3.9886,-3.9994,-4.0004,-4.0014,-4.0047,-4.0061,-3.99,-3.99,-3.9899,-3.9899,0,-3.9662,-3.9704,-3.9745,-3.9776,-3.9799,-3.9849,-3.9843,-3.9868,-3.9855,-3.9855,-3.9912,-3.9924,-3.9956,-3.9972,-3.996,-4.0039,-4.0024,-3.9997,-3.9951,-4.0032,-4.0063,-4.0076,-3.9906,-3.9904,-3.9903,-3.9902,0,0,-3.9794,-3.9818,-3.9833,-3.9846,-3.9868,-3.9899,-3.9946,-3.9979,-4.0,-4.0021,-4.006,-4.0109,-4.0084,-4.0101,-4.009,-4.0124,-4.0202,-4.0092,-4.0092,-4.0111,-4.0288,-4.0307,-4.0323,-4.0187,-4.0189,-4.0191,-4.0286,0,-3.9891,-3.9975,-3.9965,-4.0044,-4.0081,-4.0052,-4.0093,-4.011,-4.0111,-4.0142,-4.0143,-4.0178,-4.0143,-4.0152,-4.0184,-4.0186,-4.0237,-4.0179,-4.0221,-4.0222,-4.0216,-4.0339,-4.036,-4.0449,-4.0298,-4.03,-4.0302,0,-4.0015,-4.0042,-4.0125,-4.014,-4.0155,-4.0193,-4.0221,-4.0251,-4.0269,-4.0267,-4.0286,-4.0269,-4.0315,-4.0269,-4.0331,-4.0292,-4.0308,-4.0312,-4.0315,-4.0317,-4.0266,-4.0343,-4.0477,-4.049,-4.0321,-4.0319,-4.0318,0,-4.0101,-4.0158,-4.0215,-4.0228,-4.0247,-4.0273,-4.0282,-4.0297,-4.0317,-4.0341,-4.0354,-4.0383,-4.0399,-4.0421,-4.0412,-4.038,-4.0475,-4.0429,-4.0473,-4.0474,-4.0494,-4.0493,-4.0631,-4.0507,-4.0507,-4.0506,-4.0506,0,-4.021,-4.0261,-4.0254,-4.0289,-4.0345,-4.0333,-4.0389,-4.0394,-4.0408,-4.0442,-4.0418,-4.045,-4.0437,-4.0468,-4.0461,-4.0512,-4.052,-4.0519,-4.0516,-4.052,-4.052,-4.053,-4.0523,-4.051,-4.0509,-4.0508,-4.0508,0,-4.0315,-4.0313,-4.0373,-4.0386,-4.039,-4.0431,-4.0442,-4.0473,-4.0473,-4.0516,-4.0525,-4.0524,-4.0559,-4.0553,-4.0591,-4.0586,-4.065,-4.0641,-4.0645,-4.0642,-4.0686,-4.0682,-4.0835,-4.0853,-4.0719,-4.072,-4.0721,0,-4.0384,-4.0423,-4.0441,-4.0463,-4.0474,-4.0509,-4.0529,-4.0518,-4.054,-4.0563,-4.0592,-4.0625,-4.0651,-4.0708,-4.0709,-4.0738,-4.0728,-4.078,-4.0732,-4.0735,-4.0727,-4.0724,-4.0728,-4.0789,-4.079,-4.0791,-4.0792,0,-4.0506,-4.0503,-4.0534,-4.0564,-4.0589,-4.0612,-4.0633,-4.0652,-4.0642,-4.0668,-4.0704,-4.0724,-4.0763,-4.0796,-4.0823,-4.083,-4.0809,-4.0808,-4.0819,-4.0823,-4.0824,-4.0823,-4.0669,-4.0804,-4.0803,-4.0802,-4.0801,-4.0801,-4.0595,-4.0628,-4.0645,-4.068,-4.0694,-4.0714,-4.0744,-4.0748,-4.0778,-4.081,-4.0801,-4.0842,-4.0857,-4.0891,-4.0902,-4.0932,-4.0913,-4.093,-4.0934,-4.0938,-4.0943,-4.082,-4.0937,-4.0937,-4.0936,-4.0936,-4.0936,0,-4.0714,-4.0724,-4.0756,-4.0786,-4.0813,-4.0793,-4.0814,-4.0838,-4.0874,-4.0891,-4.0917,-4.0957,-4.0989,-4.0993,-4.1022,-4.1046,-4.1037,-4.1054,-4.1051,-4.1053,-4.0959,-4.0946,-4.106,-4.106,-4.106,-4.106,-4.106,-4.106,-4.078,-4.0834,-4.0833,-4.0893,-4.0902,-4.0943,-4.0957,-4.0974,-4.0987,-4.1034,-4.106,-4.1063,-4.1074,-4.1104,-4.1131,-4.1132,-4.1143,-4.1163,-4.116,-4.1072,-4.106,-4.1048,-4.1035,-4.1166,-4.1166,-4.125,-4.1251,-4.1252]}]]